Regional Weather Roundup
Issued by NWS

Home | Current Version | Previous Version | Graphics & Text | Print | Product List | Glossary On
Versions: 1 2 3 4 5 6 7 8 9 10 11 12 13 14 15 16 17 18 19 20 21 22 23 24 25 26 27 28 29 30 31 32 33 34 35 36 37 38 39 40 41 42 43 44 45 46 47 48 49 50
000
ASUS45 KABQ 230210
RWRNM
NEW MEXICO REGIONAL WEATHER ROUNDUP
NATIONAL WEATHER SERVICE ALBUQUERQUE NM
800 PM MDT TUE AUG 22 2017

NOTE: "FAIR" MEANS FEW OR NO CLOUDS BELOW 12,000 FEET AGL WITH NO
       SIGNIFICANT WEATHER OR OBSTRUCTIONS TO VISION.

      THIS PRODUCT IS RELEASED AS TWO VERSIONS.  ONE VERSION NEAR
      THE TOP OF THE HOUR CONTAINING PRELIMINARY DATA FROM ALBUQUERQUE
      AND OTHER STATIONS.  A FINAL VERSION WITH ADDITIONAL DATA IS
      ISSUED ABOUT 10 MINUTES AFTER THE HOUR.

NMZ501-503-504-510>518-230300-
NORTHWEST PLATEAU/NORTHCENTRAL MOUNTAINS

CITY           SKY/WX    TMP DP  RH WIND       PRES   REMARKS
FARMINGTON     FAIR      82  43  25 W9        30.19R
LOS ALAMOS     FAIR      69  53  58 S9        30.38R
SANTA FE       MOCLDY    71  54  54 SE16      30.30R
TAOS           FAIR      60  50  69 SE15      30.41R
ANGEL FIRE     MOCLDY    51  49  93 SW3       30.52F

$$
NMZ402-403-502-505>509-230300-
WESTCENTRAL MOUNTAINS/SOUTHWEST MOUNTAINS

CITY           SKY/WX    TMP DP  RH WIND       PRES   REMARKS
GALLUP         FAIR      76  36  23 SW5       30.27S
GRANTS         FAIR      75  46  35 SE6       30.31R
SILVER CITY    FAIR      78  52  39 S5        30.22R

$$
NMZ407-409-411-412-230300-
SOUTHERN DESERTS

CITY           SKY/WX    TMP DP  RH WIND       PRES   REMARKS
DEMING         FAIR      86  55  34 S5        30.12R
LAS CRUCES     FAIR      83  57  40 E5        30.14S
HOLLOMAN AFB   FAIR      86  59  39 SW5       30.13R
ALAMOGORDO     FAIR      82  57  42 S6        30.13R
T OR C         FAIR      82  57  42 S7        30.16R

$$
NMZ519>523-230300-
CENTRAL VALLEYS/CENTRAL HIGHLANDS

CITY           SKY/WX    TMP DP  RH WIND       PRES   REMARKS
ALBUQUERQUE    MOCLDY    76  56  49 E24G33    30.22R
DOUBLE EAGLE   MOCLDY    75  55  50 E10G16    30.27R
MORIARTY ARPT  FAIR      68  59  73 E15G24    30.34R
CLINES CORNERS FAIR      61  56  83 E15       30.39S
BELEN          FAIR      79  54  42 N3        30.19R
SOCORRO        FAIR      81  46  29 SW6       30.16R

$$
NMZ524>526-539-540-230300-
SOUTHCENTRAL MOUNTAINS

CITY           SKY/WX    TMP DP  RH WIND       PRES   REMARKS
RUIDOSO        MOCLDY    64  59  82 E3        30.39S

$$
NMZ527>531-230300-
NORTHEAST HIGHLANDS/NORTHEAST PLAINS

CITY           SKY/WX    TMP DP  RH WIND       PRES   REMARKS
LAS VEGAS      MOCLDY    59  55  87 N8        30.42R
RATON          FAIR      59  55  87 E8        30.37S
CLAYTON        FAIR      63  62  97 E6        30.29F

$$
NMZ532>537-230300-
EASTCENTRAL PLAINS

CITY           SKY/WX    TMP DP  RH WIND       PRES   REMARKS
SANTA ROSA     FAIR      68  62  79 NE9       30.26R
TUCUMCARI      FAIR      70  66  87 NE9       30.22R
CANNON AFB     FAIR      68  68 100 NE7       30.23S
CLOVIS AIRPORT FAIR      68  66  93 N5        30.22S

$$
NMZ028-029-538-230300-
SOUTHEAST PLAINS

CITY           SKY/WX    TMP DP  RH WIND       PRES   REMARKS
ROSWELL        FAIR      78  66  66 NE12      30.13R
ARTESIA        FAIR      81  66  61 N16       30.12R
CARLSBAD       FAIR      85  69  58 CALM      30.07R
HOBBS          MOCLDY    75  64  69 NE18G26   30.15R THUNDER


$$




USA.gov is the U.S. government's official web portal to all federal, state and local government web resources and services.